Regional Weather Roundup
Issued by NWS

Home | Current Version | Previous Version | Text Only | Print | Product List | Glossary On
Versions: 1 2 3 4 5 6 7 8 9 10 11 12 13 14 15 16 17 18 19 20 21 22 23 24 25 26 27 28 29 30 31 32 33 34 35 36 37 38 39 40 41 42 43 44 45 46 47 48 49 50
009
ASUS44 KJAN 011503
RWRMS

MISSISSIPPI HOURLY WEATHER ROUNDUP
NATIONAL WEATHER SERVICE JACKSON MS
1000 AM CDT WED APR 01 2015

NOTE: "FAIR: INDICATES FEW OR NO CLOUDS BELOW 12,000 FEET WITH NO
SIGNIFICANT WEATHER AND/OR OBSTRUCTIONS TO VISIBILITY.

MSZ001>002-007>008-010>013-018>021-025>028-034>036-011600-
NORTHWEST MISSISSIPPI

CITY           SKY/WX    TMP DP  RH WIND       PRES   REMARKS
CLARKSDALE       N/A     68  64  88 S9        30.03R
CLEVELAND      CLOUDY    66  65  97 S12       30.04R
GREENWOOD      PTSUNNY   68  61  78 S9        30.05S
GREENVILLE     NOT AVBL
OLIVE BRANCH   PTSUNNY   61  61 100 SE7       30.06R
OXFORD         PTSUNNY   64  55  72 S7        30.07R
TUNICA         CLOUDY    66  61  82 SE9       30.03S
$$

MSZ003>006-009-014>017-022>024-029>033-037>039-011600-
NORTHEAST MISSISSIPPI

CITY           SKY/WX    TMP DP  RH WIND       PRES   REMARKS
COLUMBUS AFB   SUNNY     67  59  73 SE5       30.07R
CORINTH        FAIR      61  57  88 SE7       30.07R
GOLDN TRIANGLE MOSUNNY   70  57  64 S7        30.07R
STARKVILLE     PTSUNNY   70  59  68 SW7       30.07R
TUPELO         MOSUNNY   65  58  78 CALM      30.08R
$$

MSZ040-058-011600-
CENTRAL MISSISSIPPI

CITY           SKY/WX    TMP DP  RH WIND       PRES   REMARKS
JACKSON INTL   CLOUDY    67  62  84 W6        30.09R
JACKSON HAWKNS NOT AVBL
MERIDIAN KEY   CLOUDY    69  61  75 SW10      30.10R
MERIDIAN NAS   MOSUNNY   72  59  63 VRB5      30.09R
RAYMOND        PTSUNNY   68  64  88 S3G12     30.08S
VICKSBURG      CLOUDY    70  63  78 VRB6      30.08R
$$

MSZ059>079-011600-
SOUTH MISSISSIPPI

CITY           SKY/WX    TMP DP  RH WIND       PRES   REMARKS
BROOKHAVEN     CLOUDY    66  66 100 W5        30.12R
HATTIESBURG    MOSUNNY   70  62  76 W5        30.12R
MCCOMB         CLOUDY    67  65  93 S3        30.11R
NATCHEZ        CLOUDY    68  64  88 SW5       30.09R
PINE BELT      CLOUDY    64  61  88 CALM      30.13R
$$

MSZ080>082-011600-
COASTAL MISSISSIPPI

CITY           SKY/WX    TMP DP  RH WIND       PRES   REMARKS
BAY ST LOUIS   MOSUNNY   72  61  68 MISG      30.12R
BILOXI         SUNNY     73  65  75 VRB1      30.12R
PASCAGOULA     SUNNY     74  64  71 VRB3      30.12R
GULFPORT       SUNNY     73  64  73 CALM      30.11R
$$



USA.gov is the U.S. government's official web portal to all federal, state and local government web resources and services.